Home > Time Zones > World Clock > Weather > Norway > Moss > Past weeks

Flag for Norway Weather past 2 weeks in Moss, Norway

Now
52 °F

Passing clouds.


Feels Like: 47 °F
Forecast: 50 / 55 °F
Wind: 16 mph from Southwest

Location: Rygge

Current Time: Oct 25, 2014 at 8:38:49 PM

Latest Report: Oct 25, 2014 at 7:50 PM


Visibility: N/A

Pressure: 29.83 "Hg

Humidity: 82%

Dew point: 46 °F

Location of MossLocation

Historic Weather in Moss — Graph

°F

Moss temperature yesterday

Maximum temperature yesterday: 55 °F (at 7:50 PM)
Minimum temperature yesterday: 52 °F (at 12:20 AM)
Average temperature yesterday: 53 °F

Past Weeks' High & Low Weather Summary

 TemperatureHumidityPressure
High61 °F (Oct 20, 3:50 PM)100% (Oct 11, 5:50 AM)30.09 "Hg (Oct 11, 5:50 AM)
Low34 °F (Oct 13, 6:50 AM)59% (Oct 20, 3:50 PM)29.30 "Hg (Oct 20, 4:20 AM)
Average47 °F93%29.82 "Hg
* Reported Oct 10 7:20 PM — Oct 25 7:20 PM, Moss, Weather by CustomWeather, © 2014

Note: Actual official high and low records may vary slightly from our data, if they occured in-between our weather recording intervals... More about our weather records

Advertising

Moss weather history for previous 24 hours

 ConditionsComfort  
Time TempWeatherWind HumidityBarometerVisibility
7:20 PM
Oct 25
52 °FPassing clouds.16 mph82%29.83 "HgN/A
6:50 PM52 °FPassing clouds.16 mph82%29.83 "HgN/A
6:20 PM52 °FPassing clouds.12 mph82%29.83 "HgN/A
5:50 PM52 °FPassing clouds.12 mph82%29.83 "HgN/A
5:20 PM52 °FSunny.10 mph82%29.83 "Hg10 mi
4:50 PM52 °FPassing clouds.12 mph82%29.83 "HgN/A
4:20 PM54 °FPassing clouds.12 mph77%29.83 "HgN/A
3:50 PM54 °FScattered clouds.15 mph77%29.83 "HgN/A
3:20 PM54 °FScattered clouds.12 mph82%29.83 "HgN/A
2:50 PM54 °FScattered clouds.14 mph88%29.83 "HgN/A
2:20 PM54 °FScattered clouds.9 mph88%29.83 "HgN/A
1:50 PM54 °FScattered clouds.10 mph82%29.83 "HgN/A
1:20 PM54 °FPassing clouds.12 mph82%29.83 "HgN/A
12:50 PM54 °FSunny.9 mph77%29.83 "Hg10 mi
12:20 PM52 °FPassing clouds.9 mph82%29.83 "HgN/A
11:50 AM52 °FPassing clouds.12 mph82%29.83 "HgN/A
11:20 AM52 °FSunny.13 mph88%29.83 "Hg10 mi
10:50 AM52 °FSunny.10 mph88%29.83 "Hg10 mi
10:20 AM50 °FPassing clouds.8 mph94%29.80 "HgN/A
9:50 AM50 °FSunny.8 mph94%29.80 "Hg10 mi
9:20 AM50 °FPassing clouds.8 mph94%29.80 "HgN/A
8:50 AM50 °FPassing clouds.7 mph94%29.77 "HgN/A
8:20 AM50 °FPassing clouds.7 mph94%29.77 "HgN/A
7:50 AM50 °FPartly cloudy.7 mph100%29.77 "HgN/A
7:20 AM52 °FMostly cloudy.8 mph94%29.77 "HgN/A
6:50 AM52 °FPassing clouds.9 mph100%29.74 "HgN/A
6:20 AM52 °FDrizzle. Light fog.8 mph100%29.74 "Hg6 mi
5:50 AM52 °FDrizzle. Mostly cloudy.9 mph100%29.74 "Hg4 mi
5:20 AM52 °FFog.7 mph100%29.74 "Hg3 mi
4:50 AM54 °FDrizzle. Low clouds.16 mph94%29.74 "Hg2 mi
4:20 AM54 °FLight rain. Fog.16 mph100%29.74 "Hg2 mi
3:50 AM54 °FLight rain. Dense fog.8 mph100%29.74 "Hg2 mi
3:20 AM54 °FLight rain. Low clouds.9 mph100%29.77 "Hg2 mi
2:50 AM54 °FLow clouds.10 mph100%29.77 "Hg4 mi
2:20 AM54 °FLow clouds.10 mph100%29.77 "Hg5 mi
1:50 AM54 °FDrizzle. Low clouds.13 mph100%29.77 "Hg4 mi
1:20 AM54 °FLight rain. Mostly cloudy.13 mph100%29.77 "Hg6 mi
12:50 AM54 °FRain. Mostly cloudy.13 mph100%29.77 "Hg4 mi
12:20 AM54 °FLight rain. Mostly cloudy.16 mph100%29.80 "Hg3 mi
11:50 PM
Oct 24
54 °FRain. Mostly cloudy.15 mph100%29.80 "Hg3 mi
11:20 PM54 °FDrizzle. Mostly cloudy.16 mph100%29.80 "Hg2 mi
10:50 PM54 °FLow clouds.16 mph100%29.80 "Hg4 mi
10:20 PM54 °FDrizzle. Low clouds.16 mph100%29.80 "Hg6 mi
9:50 PM55 °FLight rain. Low clouds.17 mph94%29.80 "Hg5 mi
9:20 PM55 °FLow clouds.17 mph94%29.80 "HgN/A
8:50 PM55 °FLow clouds.17 mph94%29.80 "Hg5 mi
8:20 PM55 °FLow clouds.15 mph94%29.83 "Hg4 mi
Weather by CustomWeather, © 2014

See weather overviewHow to use our weather pages